Regional Weather Roundup
Issued by NWS

Home | Current Version | Previous Version | Text Only | Print | Product List | Glossary On
Versions: 1 2 3 4 5 6 7 8 9 10 11 12 13 14 15 16 17 18 19 20 21 22 23 24 25 26 27 28 29 30 31 32 33 34 35 36 37 38 39 40 41 42 43 44 45 46 47 48 49 50
521
ASUS43 KMPX 171210
RWRMN
WEATHER ROUNDUP FOR MINNESOTA
NATIONAL WEATHER SERVICE TWIN CITIES/CHANHASSEN MN
600 AM CST WED JAN 17 2018


NOTE: "FAIR" INDICATES FEW OR NO CLOUDS BELOW 12,000 FEET WITH NO
SIGNIFICANT WEATHER AND/OR OBSTRUCTIONS TO VISIBILITY. N/A MEANS
CURRENT SKY AND/OR WEATHER CONDITIONS ARE NOT AVAILABLE.

MNZ060>063-068>070-171300-
   Twin Cities Metro

CITY           SKY/WX    TMP DP  RH WIND       PRES   REMARKS
TWIN CITIES    FAIR       3  -2  79 S5        30.39F WCI  -6
6HR MIN TEMP:  -1; 6HR MAX TEMP:   3;

ST PAUL        FAIR      -4  -8  83 S8        30.42F WCI -19
CRYSTAL        FAIR       2  -7  66 S8        30.37F WCI -12
BLAINE         FAIR       5  -2  72 SW12      30.35F WCI -11
LAKEVILLE      FAIR       3  -2  78 CALM      30.39F
EDEN PRAIRIE   FAIR       2  -5  72 SW7       30.38F WCI -11
6HR MIN TEMP:  -4; 6HR MAX TEMP:   2;

SOUTH ST PAUL  FAIR      -2  -7  81 SE3       30.40F
LAKE ELMO      FAIR       0  -6  78 S6        30.39F WCI -12
$$
MNZ001>005-007-008-013>017-022>024-027-028-171300-
   Northwest Minnesota

CITY           SKY/WX    TMP DP  RH WIND       PRES   REMARKS
BEMIDJI        FAIR      11  -1  59 SW10      30.07F WCI  -2
HALLOCK        FAIR       5   0  78 S17       30.00F WCI -14
ROSEAU         FAIR       9   1  72 SW12G18   29.99S WCI  -6
WARROAD        FAIR       9   1  72 SW16      29.96F WCI  -9
THIEF RVR FALL FAIR       5  -1  76 SW21      30.07F WCI -16
CROOKSTON      FAIR       7   0  72 S20G25    30.10F WCI -13
FOSSTON        FAIR       5  -2  72 S20       30.09F WCI -15
DETROIT LAKES  FAIR       5   0  78 S7        30.16F WCI  -7
MOORHEAD       FAIR       3  -4  72 S15       30.19F WCI -15
PARK RAPIDS    FAIR       3  -4  72 S7        30.14F WCI  -9
MAHNOMEN       FAIR       5  -2  72 S17       30.11F WCI -14
$$
MNZ006-009>011-018-025>026-171300-
   North Central Minnesota

CITY           SKY/WX    TMP DP  RH WIND       PRES   REMARKS
BAUDETTE       FAIR      10   0  63 SW12      29.95F WCI  -5
FLAG ISLAND    FAIR       7   0  72 S8        29.93F WCI  -6
INTL FALLS     FAIR      12  -2  53 SW12      29.99F WCI  -2
6HR MIN TEMP:   7; 6HR MAX TEMP:  12;

WASKISH        FAIR      14   1  57 SW8       30.02F WCI   3
BIG FORK       FAIR       9   0  66 SW13      30.05F WCI  -7
LONGVILLE      FAIR       5  -2  72 SW8       30.16F WCI  -8
GRAND RAPIDS   FAIR       7  -2  66 S9        30.15F WCI  -7
CRANE LAKE     FAIR       9  -2  61 S6        30.05F WCI  -1
ORR            FAIR       7  -4  61 S6        30.02F WCI  -3
COOK           FAIR       9   0  66 SW9       30.07F WCI  -5
WALKER         FAIR       8  -3  61 SW13G18   30.12F WCI  -8
$$
MNZ012-019>021-037-171300-
   Northeast Minnesota

CITY           SKY/WX    TMP DP  RH WIND       PRES   REMARKS
DULUTH         FAIR       3  -3  76 W17       30.14F WCI -17
6HR MIN TEMP:   2; 6HR MAX TEMP:   5;

ELY            FAIR       3  -2  78 SW9       30.06F WCI -11
HIBBING        FAIR       3  -3  76 SW5       30.12F WCI  -6
EVELETH        FAIR       3  -5  69 SW10      30.12F WCI -12
DULUTH HARBOR  FAIR       7   0  72 SW12      30.24F WCI  -9
TWO HARBORS    FAIR      10   0  61 SW14      30.13F WCI  -5
SILVER BAY     FAIR      12   1  62 SW6       30.10F WCI   3
GRAND MARAIS     N/A     19   7  59 W13G20    30.09F WCI   6
G MARAIS ARPRT FAIR      10  -2  56 W7G17     29.99F WCI   0
$$
MNZ029>031-032-039>041-046>048-054>057-064-171300-
   West Central Minnesota

CITY           SKY/WX    TMP DP  RH WIND       PRES   REMARKS
FERGUS FALLS   FAIR       1  -4  78 S10       30.26F WCI -14
WHEATON        CLOUDY     7  -2  66 S12       30.25F WCI  -9
MORRIS         CLOUDY     1  -4  78 SE8       30.25F WCI -12
ALEXANDRIA     FAIR       3  -3  76 SW10      30.23F WCI -12
ELBOW LAKE     FAIR       1  -4  78 S10       30.23F WCI -14
WADENA         FAIR       1  -6  71 SW3       30.18
GLENWOOD       FAIR       1  -2  85 S9        30.26F WCI -14
APPLETON       CLOUDY     7  -2  66 S6        30.28F WCI  -3
BENSON         CLOUDY     1  -4  78 S8        30.29F WCI -12
ORTONVILLE     CLEAR      1  -6  71 S6        30.25F WCI -10
MADISON        CLOUDY     9   1  72 S5        30.28F WCI   0
WILLMAR        FAIR       1  -2  85 CALM      30.32F
$$
MNZ033>034-036-042>043-049>051-058-059-171300-
   Central Minnesota

CITY           SKY/WX    TMP DP  RH WIND       PRES   REMARKS
ST CLOUD       FAIR       0  -5  79 S7        30.30F WCI -13
6HR MIN TEMP:  -5; 6HR MAX TEMP:   1;

SAUK CENTRE      N/A      1  -4  80 S7        30.26F WCI -12
PAYNESVILLE    FAIR       3  -2  79 S7        30.30F WCI -10
AITKIN         FAIR       3  -4  72 S9G17     30.20F WCI -11
PINE RIVER     FAIR       3  -4  72 S5        30.21F WCI  -6
BRAINERD       FAIR       4  -4  69 S10       30.22F WCI -11
STAPLES        FAIR       3  -4  72 S7        30.20F WCI  -9
LONG PRAIRIE   FAIR       1  -4  78 S9        30.24F WCI -14
LITTLE FALLS   FAIR       3  -8  60 S6        30.27F WCI  -8
LITCHFIELD     FAIR       3   0  85 S5        30.32F WCI  -6
BUFFALO        FAIR       1  -5  76 S6        30.35F WCI -10
MAPLE LAKE     FAIR       3  -2  80 MISG      30.33F
HUTCHINSON     FAIR       2  -3  79 S8        30.35F WCI -11
$$
MNZ037-044-045-052-053-171300-
   East Central Minnesota

CITY           SKY/WX    TMP DP  RH WIND       PRES   REMARKS
PRINCETON      FAIR       1  -4  78 S7        30.31F WCI -11
MORA           FAIR       3  -4  72 SW7       30.31F WCI  -9
CAMBRIDGE      FAIR       1  -6  71 S8        30.33F WCI -12
RUSH CITY      FAIR       1  -4  77 S7        30.33F WCI -11
MOOSE LAKE     FAIR       1  -4  78 SW9       30.22F WCI -14
HINCKLEY       FAIR       1  -2  85 SW8       30.29F WCI -12
CLOQUET        FAIR       1  -6  71 SW8       30.18F WCI -12
MCGREGOR       FAIR       7   0  72 SW9       30.21F WCI  -7
$$
MNZ071>073-080-081-089-090-097-098-171300-
   Southwest Minnesota

CITY           SKY/WX    TMP DP  RH WIND       PRES   REMARKS
MONTEVIDEO     CLOUDY     3  -2  78 SW6       30.30F WCI  -8
GRANITE FALLS  CLOUDY     4  -2  78 S8        30.33F WCI -10
CANBY          CLOUDY    11   2  65 SW7       30.28F WCI   1
MARSHALL       CLOUDY    11   1  64 W14G20    30.30R WCI  -5
REDWOOD FALLS  CLOUDY     5  -1  76 S9        30.34F WCI  -9
OLIVIA         CLOUDY     5   0  78 S8        30.33F WCI  -8
PIPESTONE      CLOUDY     3  -2  78 SW13      30.31F WCI -14
WINDOM         CLOUDY     9  -8  47 SW16G22   30.35F WCI  -9
WORTHINGTON    CLOUDY     6   0  76 SW18G29   30.34F WCI -13
JACKSON        CLOUDY     9   1  72 SW21G26   30.37F WCI -11
SLAYTON        CLOUDY     6  -1  76 S15       30.32F WCI -12
$$
MNZ065>067-074>077-082>085-091>093-171300-
   South Central Minnesota

CITY           SKY/WX    TMP DP  RH WIND       PRES   REMARKS
MANKATO        FAIR       0  -4  83 S9        30.40F WCI -15
NEW ULM        CLOUDY     1  -6  71 S8        30.37F WCI -12
ST JAMES       CLOUDY     9   1  72 S8        30.39F WCI  -4
FAIRMONT       CLOUDY     7   0  73 SW16      30.41F WCI -11
FARIBAULT      FAIR       1  -2  85 S6        30.40S WCI -10
OWATONNA       FAIR       3  -2  78 S13       30.40S WCI -14
WASECA         FAIR       5   0  78 SW12      30.42S WCI -11
ALBERT LEA     FAIR       1  -4  78 SW7       30.41F WCI -11
$$
MNZ078>079-086>088-094>096-171300-
   Southeast Minnesota

CITY           SKY/WX    TMP DP  RH WIND       PRES   REMARKS
ROCHESTER      FAIR       3  -1  83 SW15      30.40S WCI -16
6HR MIN TEMP:  -3; 6HR MAX TEMP:   3;

RED WING       FAIR      -8 -15  71 CALM      30.42F
STANTON        FAIR       3  -3  74 SW8       30.40S WCI -10
DODGE CENTER   FAIR       1  -4  78 SW13      30.38F WCI -16
WINONA         FAIR      -2  -8  78 CALM      30.46F
AUSTIN         FAIR      -2  -8  78 SW7       30.42F WCI -16
PRESTON        FAIR      -1  -5  82 SW8       30.42S WCI -15
$$
ABBREVIATIONS USED IN REMARKS
   TC - TEMPERATURES IN CELSIUS
  WCI - WIND CHILL INDEX
   HX - HEAT INDEX
  VSB - VISIBILITY
$$




USA.gov is the U.S. government's official web portal to all federal, state and local government web resources and services.